Find Starlink 30160

NORAD ID: 57441 Int'l Des: 2023-105 Owner: SPXS Country: US Constellation: starlink operational
LEOCIRCULAR

实时位置

正在加载3D地球...

关于 Starlink 30160

正在加载描述...

即将过境

Passes for default location (London). Set your location on the main map for personalized predictions.

高度历史

Loading altitude history...

两行轨道根数

1 57441U 23105M 26125.52011964 .00003191 00000-0 12539-3 0 9993
2 57441 42.9988 305.6892 0001029 275.6088 84.4646 15.27589593154033
Epoch: May 5, 2026 • Age: 19 hours

当前状态

高度 486.3 km
速度 7.63 km/s
星下点 40.75°N, 29.31°E
发射日期 Jul 24, 2023
运行时间 2.7 years
类型 internet

技术详情

分类 Payload
质量 730.00 kg
干质量 700.00 kg
总质量 730.00 kg
长度 0.30 m
直径 4.10 m
跨度 29.00 m
形状 Box + pan
制造商 SPXS
平台类型 Starlink V2M
阶段状态 In Orbit
所有者/国家 SPXS/US

Most Searched